GEFSCGP_con_prob3kmehi_162.txt.gz
EHI
0 0 0 0 0 0 0 0 0 0 0 1 3 7 10 11 12 16 21 23 22 28 36 40 39 38 38 39 36 31 29 27 27 26 25 25 24 22 19 17 16 16 15 15
0 0 0 0 0 0 0 0 0 0 0 1 4 7 9 11 13 16 19 20 22 28 34 37 38 36 36 35 32 28 26 25 24 23 22 22 23 21 19 17 15 14 13 12
0 0 0 0 0 0 0 0 0 0 0 1 3 6 8 10 12 15 16 17 20 27 33 36 36 34 32 30 27 25 24 23 22 21 21 21 22 21 18 17 15 13 11 10
0 0 0 0 0 0 0 0 0 0 0 1 1 3 7 9 11 12 13 15 19 28 34 37 35 32 29 26 24 23 22 21 20 21 22 22 21 20 18 17 15 13 11 10
0 0 0 0 0 0 0 0 0 0 0 0 0 1 4 8 9 10 12 16 22 29 34 34 32 31 29 26 24 22 21 19 20 21 22 20 19 18 16 14 13 12 11 11
0 0 0 0 0 0 0 0 0 0 0 0 0 0 2 6 9 11 15 21 26 30 31 29 30 31 30 28 25 21 19 18 18 19 18 16 14 13 12 10 9 9 9 9
0 0 0 0 0 0 0 0 0 0 0 0 0 0 2 4 8 14 20 25 27 28 28 28 31 31 30 28 26 21 17 16 15 15 14 13 11 10 8 7 6 5 5 5
0 0 0 0 0 0 0 0 0 0 0 0 0 1 3 6 9 14 21 26 27 26 28 31 33 32 28 27 25 22 18 15 14 12 12 11 9 8 7 6 4 4 4 4
0 0 0 0 0 0 0 0 0 0 0 0 0 1 4 8 10 15 22 28 28 27 30 33 33 31 26 24 23 22 19 15 12 10 9 9 8 7 6 4 3 3 3 3
0 0 0 0 0 0 0 0 0 0 0 0 0 1 4 8 11 17 25 29 31 31 32 33 31 26 21 19 19 19 17 15 11 8 7 7 7 6 4 2 1 1 1 1
0 0 0 0 0 0 0 0 0 0 0 0 0 0 2 6 12 21 28 31 33 33 32 32 27 19 15 15 15 14 14 13 10 7 6 6 6 6 4 2 0 0 0 1
0 0 0 0 0 0 0 0 0 0 0 0 0 1 2 5 12 22 28 31 32 30 29 27 22 15 13 14 12 10 9 9 8 7 6 6 6 5 4 2 1 1 1 2
0 0 0 0 0 0 0 0 0 0 0 0 0 1 3 7 12 19 24 27 28 26 24 21 18 15 14 13 11 8 7 6 5 5 6 6 5 4 3 3 3 2 2 2
0 0 0 0 0 0 0 0 0 0 0 0 0 1 3 9 13 17 20 22 22 22 19 17 16 16 15 13 10 8 7 6 4 4 4 4 4 3 3 3 2 2 1 1
0 0 0 0 0 0 0 0 0 0 0 0 0 1 5 10 14 16 17 17 18 18 15 14 15 15 13 10 9 8 7 6 4 3 3 3 3 3 2 1 1 1 0 0
0 0 0 0 0 0 0 0 0 0 0 0 1 3 8 10 12 13 14 14 15 15 13 12 13 12 10 8 7 8 8 6 4 3 3 3 3 2 1 0 0 0 0 0
0 0 0 0 0 0 0 0 0 0 0 1 3 6 9 10 10 11 11 11 12 13 11 9 9 9 7 5 5 6 6 4 3 3 3 3 2 1 0 0 0 0 0 0
0 0 0 0 0 0 0 0 0 0 1 3 6 9 10 9 10 10 9 9 10 10 9 6 5 5 4 3 3 4 4 3 3 3 2 1 1 0 0 0 0 0 0 0
0 0 0 0 0 0 0 0 0 0 3 6 9 11 10 10 10 9 9 9 9 8 7 5 2 2 2 1 1 2 2 2 2 1 1 0 0 0 0 0 0 0 0 0
0 0 0 0 0 0 0 0 0 1 3 7 10 10 9 10 12 11 11 11 10 8 6 3 1 1 1 0 1 1 1 1 1 0 0 0 0 0 0 0 0 0 0 0
0 0 0 0 0 0 0 0 1 1 4 8 10 10 9 10 13 14 13 12 11 7 3 1 0 0 0 0 1 0 0 0 0 0 0 0 0 0 0 0 0 0 0 0
0 0 0 0 0 0 0 1 1 2 5 8 10 10 9 9 11 12 12 10 8 5 1 0 0 0 0 0 0 0 0 0 0 0 0 0 0 0 0 0 0 0 0 0
0 0 0 0 0 1 1 1 1 3 6 8 8 8 8 7 7 7 7 5 3 1 0 0 0 0 0 0 0 0 0 0 0 0 0 0 0 0 0 0 0 0 0 0
0 0 0 0 0 1 1 1 2 3 6 7 6 4 4 5 4 4 3 2 0 0 0 0 0 0 0 0 0 0 0 0 0 0 0 0 0 0 0 0 0 0 0 0
0 0 0 0 0 0 0 1 3 4 4 5 4 2 3 4 3 2 1 0 0 0 0 0 0 0 0 0 0 0 0 0 0 0 0 0 0 0 0 0 0 0 0 0
0 0 0 0 0 0 1 2 3 4 3 2 2 1 2 3 3 1 0 0 0 0 0 0 0 0 0 0 0 0 0 0 0 0 0 0 0 0 0 0 0 0 0 0

GEFSCGP_con_prob3kmehi_168.txt.gz
EHI
0 0 0 0 0 0 0 1 1 1 2 4 6 9 11 14 19 20 17 17 17 18 18 22 26 28 25 23 23 23 23 20 16 15 15 14 12 10 8 7 7 7 6 6
0 0 0 0 0 0 0 1 1 1 1 3 5 8 10 13 16 17 16 18 21 21 21 23 25 24 24 23 20 20 20 18 15 14 14 14 12 10 9 8 8 7 6 6
0 0 0 0 0 0 0 0 0 0 0 1 4 6 8 10 13 14 14 18 22 24 24 24 23 22 22 21 18 16 16 15 14 13 14 14 13 11 11 10 8 7 6 6
0 0 0 0 0 0 0 0 0 0 0 0 2 4 5 7 10 12 13 16 21 24 25 24 23 22 21 19 16 13 12 12 12 12 14 14 13 12 11 9 7 6 5 5
0 0 0 0 0 0 0 0 0 0 0 0 0 1 3 5 8 9 12 16 20 23 24 22 21 20 19 17 14 11 10 10 11 11 12 14 13 11 9 6 4 3 3 2
0 0 0 0 0 0 0 0 0 0 0 0 0 0 1 4 6 8 10 14 18 20 21 20 19 19 17 14 11 9 9 9 10 9 10 10 10 7 5 3 1 1 1 0
0 0 0 0 0 0 0 0 0 0 0 0 0 0 0 2 4 7 8 11 15 18 17 17 19 19 16 12 10 9 9 10 10 9 7 6 4 3 2 1 0 0 0 0
0 0 0 0 0 0 0 0 0 0 0 0 0 0 0 1 3 6 8 9 14 17 16 15 17 17 15 12 11 10 9 9 9 8 5 2 0 0 0 0 0 0 0 0
0 0 0 0 0 0 0 0 0 0 0 0 0 0 0 1 3 6 8 11 15 16 13 12 13 14 14 12 10 8 7 6 6 6 4 1 0 0 0 0 0 0 0 0
0 0 0 0 0 0 0 0 0 0 0 0 0 0 0 2 4 6 8 12 14 13 10 9 10 12 13 11 8 5 4 3 4 5 4 1 0 0 0 0 0 0 0 0
0 0 0 0 0 0 0 0 0 0 0 0 0 0 1 3 5 7 8 10 11 10 9 9 10 11 11 9 6 4 2 1 3 4 3 1 0 0 0 0 0 0 0 0
0 0 0 0 0 0 0 0 0 0 0 0 0 0 1 3 4 7 8 8 8 9 9 9 9 9 8 6 4 2 1 0 2 3 1 0 0 0 0 0 0 0 0 0
0 0 0 0 0 0 0 0 0 0 0 0 0 0 1 3 4 6 7 7 6 6 6 7 7 7 6 3 2 1 1 1 2 2 1 0 0 0 0 0 0 0 0 0
0 0 0 0 0 0 0 0 0 0 0 0 0 0 2 3 3 4 5 5 4 3 3 5 6 5 4 3 2 2 2 2 2 1 0 0 0 0 0 0 0 0 0 0
0 0 0 0 0 0 0 0 0 0 0 0 0 0 1 3 3 3 4 4 3 2 2 3 3 4 4 4 3 3 3 2 1 0 0 0 0 0 0 0 0 0 0 0
0 0 0 0 0 0 0 0 0 0 0 0 0 0 1 3 3 4 5 5 4 2 1 1 1 3 3 3 3 3 3 2 1 0 0 0 0 0 0 0 0 0 0 0
0 0 0 0 0 0 0 0 0 0 0 0 0 1 2 3 4 5 6 6 5 3 1 0 1 2 2 3 3 3 2 1 1 0 0 0 0 0 0 0 0 0 0 0
0 0 0 0 0 0 0 0 0 0 0 0 0 2 3 3 3 4 5 5 4 2 1 0 0 1 2 2 3 2 1 0 0 0 0 0 0 0 0 0 0 0 0 0
0 0 0 0 0 0 0 0 0 0 0 0 0 2 3 4 3 2 3 3 3 1 0 0 0 0 1 1 1 1 1 0 0 0 0 0 0 0 0 0 0 0 0 0
0 0 0 0 0 0 0 0 0 0 0 0 0 1 3 3 2 1 1 2 1 0 0 0 0 0 0 0 0 0 0 0 0 0 0 0 0 0 0 0 0 0 0 0
0 0 0 0 0 0 0 0 0 0 0 0 0 1 1 1 1 0 0 0 0 0 0 0 0 0 0 0 0 0 0 0 0 0 0 0 0 0 0 0 0 0 0 0
0 0 0 0 0 0 0 0 0 0 0 0 0 0 0 0 0 0 0 0 0 0 0 0 0 0 0 0 0 0 0 0 0 0 0 0 0 0 0 0 0 0 0 0
0 0 0 0 0 0 0 0 0 0 0 0 0 0 0 0 0 0 0 0 0 0 0 0 0 0 0 0 0 0 0 0 0 0 0 0 0 0 0 0 0 0 0 0
0 0 0 0 0 0 0 0 0 0 0 0 0 0 0 0 1 0 0 0 0 0 0 0 0 0 0 0 0 0 0 0 0 0 0 0 0 0 0 0 0 0 0 0
0 0 0 0 0 0 0 0 0 0 0 0 0 0 0 0 0 0 0 0 0 0 0 0 0 0 0 0 0 0 0 0 0 0 0 0 0 0 0 0 0 0 0 0
0 0 0 0 0 0 0 0 0 1 1 1 0 0 0 0 0 0 0 0 0 0 0 0 0 0 0 0 0 0 0 0 0 0 0 0 0 0 0 0 0 0 0 0

GEFSCGP_con_prob3kmehi_174.txt.gz
EHI
0 0 0 0 0 0 0 0 0 0 1 2 4 3 3 5 7 7 6 6 6 5 5 4 5 8 11 14 14 15 14 10 5 2 1 0 0 0 1 2 1 0 0 1
0 0 0 0 0 0 0 0 0 0 0 1 1 1 3 6 8 7 6 5 6 7 7 7 7 8 11 14 15 14 13 10 5 1 1 1 1 1 2 3 2 2 2 3
0 0 0 0 0 0 0 0 0 0 0 0 0 0 2 5 6 6 5 5 6 8 9 10 10 10 11 13 13 12 11 8 6 4 4 4 4 4 4 4 4 4 4 4
0 0 0 0 0 0 0 0 0 0 0 0 0 0 0 2 3 4 4 4 6 10 11 11 12 12 12 12 10 9 9 8 7 7 8 7 7 6 5 5 5 4 3 3
0 0 0 0 0 0 0 0 0 0 0 0 0 0 0 0 1 2 2 3 6 11 12 11 11 13 12 11 8 7 7 8 8 8 8 8 7 6 5 4 3 2 1 1
0 0 0 0 0 0 0 0 0 0 0 0 0 0 0 0 0 1 2 3 6 10 11 11 11 12 12 10 6 4 6 8 8 7 6 6 6 5 4 2 1 1 0 0
0 0 0 0 0 0 0 0 0 0 0 0 0 0 0 0 0 1 3 4 6 8 10 11 12 13 13 10 5 3 6 8 8 7 6 5 5 3 2 1 0 0 0 0
0 0 0 0 0 0 0 0 0 0 0 0 0 0 0 0 0 0 2 4 6 7 8 11 14 15 13 9 5 5 6 6 7 6 4 3 2 1 1 0 0 0 0 0
0 0 0 0 0 0 0 0 0 0 0 0 0 0 0 0 0 0 1 3 4 5 7 10 12 13 9 5 4 5 5 4 4 3 2 1 1 1 0 0 0 0 0 0
0 0 0 0 0 0 0 0 0 0 0 0 0 0 0 0 0 0 1 2 3 4 6 8 9 8 5 2 2 3 4 2 1 2 2 2 2 1 0 0 0 0 0 0
0 0 0 0 0 0 0 0 0 0 0 0 0 0 0 0 0 0 1 2 3 4 5 5 5 4 2 1 1 2 2 1 1 2 3 3 2 1 0 0 0 0 0 0
0 0 0 0 0 0 0 0 0 0 0 0 0 0 0 0 0 0 1 3 4 5 5 3 2 2 1 0 0 1 1 0 1 2 3 3 2 1 0 0 0 0 0 0
0 0 0 0 0 0 0 0 0 0 0 0 0 0 0 0 0 0 1 3 5 5 3 1 1 1 1 0 0 0 1 1 1 2 2 1 1 0 0 0 0 0 0 0
0 0 0 0 0 0 0 0 0 0 0 0 0 0 0 0 0 0 1 3 4 3 1 0 0 0 0 0 0 1 2 2 2 1 1 0 0 0 0 0 0 0 0 0
0 0 0 0 0 0 0 0 0 0 0 0 0 0 0 0 0 0 1 2 3 2 1 0 0 0 0 0 0 1 2 3 2 1 0 0 0 0 0 0 0 0 0 0
0 0 0 0 0 0 0 0 0 0 0 0 0 0 0 0 0 0 1 2 3 2 1 0 0 0 0 0 0 0 1 3 2 1 0 0 0 0 0 0 0 0 0 0
0 0 0 0 0 0 0 0 0 0 0 0 0 0 0 0 0 0 1 2 3 2 1 0 0 0 0 0 0 0 1 2 2 1 0 0 0 0 0 0 0 0 0 0
0 0 0 0 0 0 0 0 0 0 0 0 0 0 0 0 0 0 1 2 3 2 1 0 0 0 0 0 0 0 0 1 1 0 0 0 0 0 0 0 0 0 0 0
0 0 0 0 0 0 0 0 0 0 0 0 0 1 1 0 0 0 0 1 2 2 1 0 0 0 0 0 0 0 0 0 0 0 0 0 0 0 0 0 0 0 0 0
0 0 0 0 0 0 0 0 0 0 0 0 0 1 1 0 0 0 0 0 1 1 0 0 0 0 0 0 0 0 0 0 0 0 0 0 0 0 0 0 0 0 0 0
0 0 0 0 0 0 0 0 0 0 0 0 0 1 1 0 0 0 0 0 0 0 0 0 0 0 0 0 0 0 0 0 0 0 0 0 0 0 0 0 0 0 0 0
0 0 0 0 0 0 0 0 0 0 0 0 0 0 0 0 0 0 0 0 0 0 0 0 0 0 0 0 0 0 0 0 0 0 0 0 0 0 0 0 0 0 0 0
0 0 0 0 0 0 0 0 0 0 0 0 0 0 0 0 0 0 0 0 0 0 0 0 0 0 0 0 0 0 0 0 0 0 0 0 0 0 0 0 0 0 0 0
0 0 0 0 0 0 0 0 0 0 0 0 0 0 0 0 0 0 0 0 0 0 0 0 0 0 0 0 0 0 0 0 0 0 0 0 0 0 0 0 0 0 0 0
0 0 0 0 0 0 0 0 0 0 0 0 0 0 0 0 0 0 0 0 0 0 0 0 0 0 0 0 0 0 0 0 0 0 0 0 0 0 0 0 0 0 0 0
0 0 0 0 0 0 0 0 0 0 0 0 0 0 0 0 0 0 0 0 0 0 0 0 0 0 0 0 0 0 0 0 0 0 0 0 0 0 0 0 0 0 0 0

GEFSCGP_con_prob3kmehi_180.txt.gz
EHI
0 0 0 0 0 0 0 0 0 0 0 0 0 0 1 2 3 5 7 9 8 10 14 16 14 13 13 12 14 20 24 24 24 24 22 18 15 13 11 7 5 4 3 3
0 0 0 0 0 0 0 0 0 0 0 0 0 0 1 2 3 5 7 9 10 11 13 12 11 13 14 14 15 20 25 25 25 25 23 19 17 14 11 9 7 5 4 4
0 0 0 0 0 0 0 0 0 0 0 0 0 0 1 1 3 6 9 11 12 13 13 9 9 12 15 15 17 22 26 27 27 26 23 19 15 12 9 8 9 8 6 4
0 0 0 0 0 0 0 0 0 0 0 0 0 0 0 0 2 6 9 13 15 15 12 9 10 13 14 15 17 22 26 26 26 26 23 18 13 10 9 9 9 9 7 5
0 0 0 0 0 0 0 0 0 0 0 0 0 0 0 0 2 5 9 13 15 15 12 9 9 12 14 15 16 20 23 23 23 23 23 20 15 14 14 11 9 7 6 5
0 0 0 0 0 0 0 0 0 0 0 0 0 0 1 1 1 4 8 10 12 13 11 7 7 10 14 16 17 19 21 21 20 20 20 19 17 16 14 11 8 6 5 6
0 0 0 0 0 0 0 0 0 0 0 0 0 1 2 2 2 4 7 9 11 13 12 8 6 10 16 19 18 19 20 19 18 17 17 17 16 14 11 9 7 6 5 6
0 0 0 0 0 0 0 0 0 0 0 0 0 1 2 2 3 4 5 7 11 14 13 10 9 13 17 19 19 19 19 17 14 13 14 14 13 10 8 8 7 5 4 4
0 0 0 0 0 0 0 0 0 0 0 0 0 0 1 3 3 3 4 6 10 13 14 12 12 15 17 18 18 18 16 14 12 11 11 11 10 8 7 6 4 3 2 2
0 0 0 0 0 0 0 0 0 0 0 0 0 0 1 2 2 2 3 5 8 10 12 14 15 15 15 15 15 16 14 12 11 11 10 10 8 7 6 5 3 2 1 1
0 0 0 0 0 0 0 0 0 0 0 0 0 0 0 1 2 3 3 4 6 8 10 13 13 13 12 10 10 12 12 10 9 9 9 9 9 8 7 5 5 4 2 1
0 0 0 0 0 0 0 0 0 0 0 0 0 0 0 0 2 3 4 4 5 7 9 10 10 9 7 6 7 10 10 9 8 7 6 7 8 8 6 5 5 5 3 2
0 0 0 0 0 0 0 0 0 0 0 0 0 0 0 0 2 4 6 7 7 7 8 8 7 6 5 5 6 9 9 8 7 6 5 6 6 5 4 4 4 3 2 1
0 0 0 0 0 0 0 0 0 0 0 0 0 0 0 0 2 5 8 9 8 6 5 5 6 5 5 5 7 8 8 7 6 6 5 5 4 3 2 3 3 2 0 0
0 0 0 0 0 0 0 0 0 0 0 0 0 0 0 0 2 5 8 9 9 6 3 2 3 5 4 4 5 6 6 5 5 5 4 4 3 2 1 2 2 1 0 0
0 0 0 0 0 0 0 0 0 0 0 0 0 0 0 0 2 5 8 9 8 5 2 1 2 4 4 3 3 4 4 4 4 4 3 3 2 1 0 1 1 0 0 0
0 0 0 0 0 0 0 0 0 0 0 0 0 0 0 1 3 5 8 9 7 3 1 1 2 3 3 3 3 3 3 3 3 4 3 3 2 1 0 0 0 0 0 0
0 0 0 0 0 0 0 0 0 0 0 0 0 0 0 1 3 4 7 8 6 2 0 1 2 2 2 3 3 3 3 3 2 2 3 3 1 0 0 0 0 0 0 0
0 0 0 0 0 0 0 0 0 0 0 0 0 1 1 2 2 2 4 7 5 2 1 1 1 1 1 3 3 3 3 3 1 1 2 2 1 1 0 0 0 0 0 0
0 0 0 0 0 0 0 0 0 0 0 0 0 1 2 1 1 3 5 6 4 2 3 3 3 3 3 3 3 3 3 3 2 2 2 2 2 1 0 0 0 0 0 0
0 0 0 0 0 0 0 0 0 0 0 0 0 1 2 1 1 6 9 7 4 3 4 4 4 4 4 4 3 3 3 3 3 2 1 1 1 1 0 0 0 0 0 0
0 0 0 0 0 0 0 0 0 0 0 0 0 1 1 0 2 7 9 7 4 3 4 4 4 3 3 3 3 3 3 3 3 3 2 1 0 0 0 1 0 0 0 0
0 0 0 0 0 0 0 0 0 0 0 0 0 0 0 1 3 7 7 5 4 3 3 4 2 1 1 1 1 2 2 3 3 3 2 1 0 0 0 0 0 0 0 0
0 0 0 0 0 0 0 0 0 0 0 0 0 0 0 1 4 6 6 4 3 2 2 2 2 1 0 0 0 1 1 1 2 2 1 0 0 0 0 0 0 0 0 0
0 0 0 0 0 0 0 0 0 0 0 0 0 0 0 1 3 5 4 3 3 2 1 1 1 1 0 0 0 0 0 0 1 1 0 0 0 0 0 0 0 0 0 0
0 0 0 0 0 0 0 0 0 0 0 0 0 0 0 0 2 3 4 3 3 2 1 0 1 0 0 0 0 0 0 0 0 0 0 0 0 0 0 0 0 0 0 0